Baltimore Martin, MD

12:02 AM EDT on June 25, 2017 (GMT -0400)
Martin State

Weather History for KMTN - August, 2013

Change the Weather History Date:

Thursday, August 8, 2013

  Actual Average Record
Temperature  
Mean Temperature 76 °F -  
Max Temperature 82 °F 82 °F 102 °F (2007)
Min Temperature 69 °F 67 °F 59 °F (1997)
Cooling Degree Days 10    
Growing Degree Days 26 (Base 50)    
Moisture  
Dew Point 74 °F    
Average Humidity 94    
Maximum Humidity 100    
Minimum Humidity 79    
Precipitation  
Precipitation 0.45 in - - ()
Sea Level Pressure  
Sea Level Pressure 30.03 in    
Wind  
Wind Speed 6 mph (SSE)    
Max Wind Speed 16 mph    
Max Gust Speed 24 mph    
Visibility 9 miles    
Events Rain , Thunderstorm    
Averages and records for this station are not official NWS values.
T = Trace of Precipitation, MM = Missing Value Source: NWS Daily Summary

Daily Weather History Graph

Daily Weather History Graph

Search for Another Location

Airport or City:

Trip Planner

Search our weather history database for the weather conditions in past years. The results will help you decide how hot, cold, wet, or windy it might be!

Date:

Astronomy

Aug. 08, 2013 Rise Set
Actual Time 6:12 AM EDT 8:09 PM EDT
Civil Twilight 5:42 AM EDT 8:38 PM EDT
Nautical Twilight 5:07 AM EDT 9:14 PM EDT
Astronomical Twilight 4:28 AM EDT 9:52 PM EDT
Moon 7:56 AM EDT (8/8) 8:48 PM EDT (8/8)
Length of Visible Light 14h 55m
Length of Day
13h 57m
Waxing Crescent, 3% of the Moon is Illuminated
Aug 8
Waxing Crescent
Aug 14
First Quarter
Aug 20
Full
Aug 28
Last Quarter
Sep 5
New

Hourly Weather History & Observations

Time (EDT) Temp. Heat Index Dew Point Humidity Pressure Visibility Wind Dir Wind Speed Gust Speed Precip Events Conditions
12:12 AM 77.0 °F - 73.4 °F 89% 30.05 in 10.0 mi SSE 9.2 mph - 0.01 in Rain , Thunderstorm Light Thunderstorms and Rain
12:33 AM 77.0 °F - 73.4 °F 89% 30.05 in 10.0 mi SSE 6.9 mph - 0.01 in   Mostly Cloudy
12:54 AM 77.0 °F - 73.4 °F 89% 30.07 in 7.0 mi WSW 6.9 mph - 0.04 in Rain Rain
1:12 AM 71.6 °F - 69.8 °F 94% 30.07 in 3.0 mi WNW 9.2 mph 24.2 mph 0.21 in Rain , Thunderstorm Heavy Thunderstorms and Rain
1:33 AM 69.8 °F - 69.8 °F 100% 30.07 in 4.0 mi West 5.8 mph - 0.36 in Rain Heavy Rain
1:54 AM 69.8 °F - 69.8 °F 100% 30.05 in 10.0 mi Calm Calm - 0.40 in Rain Light Rain
2:12 AM 69.8 °F - 69.8 °F 100% 30.05 in 10.0 mi ENE 4.6 mph - 0.01 in Rain Light Rain
2:33 AM 69.8 °F - 69.8 °F 100% 30.04 in 10.0 mi NE 3.5 mph - 0.01 in   Light Drizzle
2:54 AM 69.8 °F - 69.8 °F 100% 30.04 in 10.0 mi NE 3.5 mph - 0.01 in Rain Light Rain
3:12 AM 69.8 °F - 69.8 °F 100% 30.04 in 10.0 mi Calm Calm - N/A   Overcast
3:33 AM 71.6 °F - 71.6 °F 100% 30.03 in 10.0 mi Calm Calm - N/A   Mostly Cloudy
3:54 AM 71.6 °F - 71.6 °F 100% 30.03 in 7.0 mi Calm Calm - N/A   Scattered Clouds
4:15 AM 69.8 °F - 69.8 °F 100% 30.03 in 5.0 mi Calm Calm - N/A   Clear
4:33 AM 69.8 °F - 69.8 °F 100% 30.02 in 7.0 mi Calm Calm - N/A   Clear
4:54 AM 69.8 °F - 69.8 °F 100% 30.02 in 4.0 mi Calm Calm - N/A   Clear
5:15 AM 69.8 °F - 69.8 °F 100% 30.02 in 5.0 mi Calm Calm - N/A   Clear
5:33 AM 71.6 °F - 71.6 °F 100% 30.02 in 5.0 mi Calm Calm - N/A   Clear
5:45 AM 71.6 °F - 71.6 °F 100% 30.02 in 10.0 mi Calm Calm - N/A   Partly Cloudy
6:45 AM 73.4 °F - 73.4 °F 100% 30.05 in 10.0 mi South 4.6 mph - N/A   Mostly Cloudy
7:45 AM 75.2 °F - 75.2 °F 100% 30.05 in 10.0 mi South 4.6 mph - N/A   Mostly Cloudy
8:45 AM 78.8 °F - 75.2 °F 89% 30.06 in 10.0 mi South 4.6 mph - N/A   Scattered Clouds
9:55 AM 80.6 °F 86.2 °F 75.2 °F 84% 30.05 in 10.0 mi South 6.9 mph - N/A   Mostly Cloudy
10:45 AM 82.4 °F 89.5 °F 75.2 °F 79% 30.05 in 10.0 mi South 5.8 mph - N/A   Mostly Cloudy
11:50 AM 82.4 °F 92.4 °F 78.8 °F 89% 30.04 in 10.0 mi SE 10.4 mph - N/A   Mostly Cloudy
1:50 PM 82.4 °F 90.9 °F 77.0 °F 84% 30.04 in 10.0 mi SSE 15.0 mph - N/A   Mostly Cloudy
2:50 PM 82.4 °F 90.9 °F 77.0 °F 84% 30.03 in 10.0 mi SSE 16.1 mph - N/A   Mostly Cloudy
3:45 PM 80.6 °F 86.2 °F 75.2 °F 84% 30.02 in 7.0 mi SW 10.4 mph - N/A Rain , Thunderstorm Light Thunderstorms and Rain
4:50 PM 82.4 °F 90.9 °F 77.0 °F 84% 30.01 in 10.0 mi SE 13.8 mph - N/A   Mostly Cloudy
5:45 PM 82.4 °F 89.5 °F 75.2 °F 79% 30.00 in 10.0 mi SSE 12.7 mph - N/A   Mostly Cloudy
6:54 PM 73.4 °F - 71.6 °F 94% 30.02 in 7.0 mi Calm Calm - N/A   Mostly Cloudy
7:54 PM 75.2 °F - 75.2 °F 100% 30.01 in 7.0 mi Calm Calm - N/A   Mostly Cloudy
8:54 PM 75.2 °F - 75.2 °F 100% 30.02 in 7.0 mi Calm Calm - N/A   Mostly Cloudy
9:45 PM 78.8 °F - 77.0 °F 94% 30.02 in 10.0 mi SSE 10.4 mph - N/A   Mostly Cloudy
10:15 PM 78.8 °F - 77.0 °F 94% 30.02 in 10.0 mi SSE 8.1 mph - N/A   Clear
10:36 PM 78.8 °F - 75.2 °F 89% 30.02 in 10.0 mi SE 9.2 mph - N/A   Scattered Clouds
10:57 PM 78.8 °F - 77.0 °F 94% 30.02 in 10.0 mi SSE 10.4 mph - N/A   Mostly Cloudy
11:15 PM 78.8 °F - 77.0 °F 94% 30.01 in 10.0 mi SSE 10.4 mph - N/A   Mostly Cloudy
11:36 PM 78.8 °F - 77.0 °F 94% 30.01 in 10.0 mi SSE 10.4 mph - N/A   Clear
11:57 PM 77.0 °F - 77.0 °F 100% 30.00 in 10.0 mi SE 11.5 mph - N/A   Light Drizzle